Time,TemperatureF,DewpointF,PressureIn,WindDirection,WindDirectionDegrees,WindSpeedMPH,WindSpeedGustMPH,Humidity,HourlyPrecipIn,Conditions,Clouds,dailyrainin,SoftwareType,DateUTC
2013-09-07 00:06:00,51.8,49.0,30.12,SW,217,0.0,1.0,91,0.00,,,0.00,weatherlink.com 1.10,2013-09-07 04:06:00,
2013-09-07 00:21:00,51.7,49.0,30.12,SW,217,0.0,0.0,90,0.00,,,0.00,weatherlink.com 1.10,2013-09-07 04:21:00,
2013-09-07 00:36:00,51.1,48.0,30.12,SW,217,0.0,0.0,90,0.00,,,0.00,weatherlink.com 1.10,2013-09-07 04:36:00,
2013-09-07 00:51:00,50.4,48.0,30.12,SW,217,0.0,0.0,91,0.00,,,0.00,weatherlink.com 1.10,2013-09-07 04:51:00,
2013-09-07 01:06:00,50.2,48.0,30.13,SW,217,0.0,0.0,92,0.00,,,0.00,weatherlink.com 1.10,2013-09-07 05:06:00,
2013-09-07 01:21:00,50.1,48.0,30.12,SW,217,0.0,0.0,93,0.00,,,0.00,weatherlink.com 1.10,2013-09-07 05:21:00,
2013-09-07 01:36:00,50.5,49.0,30.12,SW,217,0.0,0.0,93,0.00,,,0.00,weatherlink.com 1.10,2013-09-07 05:36:00,
2013-09-07 01:51:00,50.6,49.0,30.11,SW,217,0.0,0.0,93,0.00,,,0.00,weatherlink.com 1.10,2013-09-07 05:51:00,
2013-09-07 02:06:00,50.2,48.0,30.12,SW,217,0.0,1.0,92,0.00,,,0.00,weatherlink.com 1.10,2013-09-07 06:06:00,
2013-09-07 02:21:00,49.5,47.0,30.12,SW,217,0.0,0.0,92,0.00,,,0.00,weatherlink.com 1.10,2013-09-07 06:21:00,
2013-09-07 02:36:00,49.2,47.0,30.11,SW,217,0.0,1.0,93,0.00,,,0.00,weatherlink.com 1.10,2013-09-07 06:36:00,
2013-09-07 02:51:00,48.9,47.0,30.11,SW,217,0.0,0.0,94,0.00,,,0.00,weatherlink.com 1.10,2013-09-07 06:51:00,
2013-09-07 03:06:00,49.0,47.0,30.11,SW,217,0.0,0.0,94,0.00,,,0.00,weatherlink.com 1.10,2013-09-07 07:06:00,
2013-09-07 03:21:00,49.1,48.0,30.11,SW,217,0.0,0.0,94,0.00,,,0.00,weatherlink.com 1.10,2013-09-07 07:21:00,
2013-09-07 03:36:00,48.4,47.0,30.11,SW,217,0.0,0.0,93,0.00,,,0.00,weatherlink.com 1.10,2013-09-07 07:36:00,
2013-09-07 03:52:00,47.9,46.0,30.11,SW,217,0.0,0.0,93,0.00,,,0.00,weatherlink.com 1.10,2013-09-07 07:52:00,
2013-09-07 04:07:00,47.6,46.0,30.11,SW,217,0.0,0.0,94,0.00,,,0.00,weatherlink.com 1.10,2013-09-07 08:07:00,
2013-09-07 04:22:00,47.6,46.0,30.11,SW,217,0.0,0.0,94,0.00,,,0.00,weatherlink.com 1.10,2013-09-07 08:22:00,
2013-09-07 04:37:00,47.6,46.0,30.11,SW,217,0.0,0.0,95,0.00,,,0.00,weatherlink.com 1.10,2013-09-07 08:37:00,
2013-09-07 04:52:00,47.1,46.0,30.11,SW,217,0.0,0.0,94,0.00,,,0.00,weatherlink.com 1.10,2013-09-07 08:52:00,
2013-09-07 05:07:00,46.9,46.0,30.11,SW,217,0.0,0.0,95,0.00,,,0.00,weatherlink.com 1.10,2013-09-07 09:07:00,
2013-09-07 05:22:00,46.5,45.0,30.10,SW,217,0.0,0.0,95,0.00,,,0.00,weatherlink.com 1.10,2013-09-07 09:22:00,
2013-09-07 05:37:00,46.5,46.0,30.10,SW,217,0.0,0.0,96,0.00,,,0.00,weatherlink.com 1.10,2013-09-07 09:37:00,
2013-09-07 05:52:00,46.7,46.0,30.11,SW,217,0.0,0.0,96,0.00,,,0.00,weatherlink.com 1.10,2013-09-07 09:52:00,
2013-09-07 06:07:00,46.4,45.0,30.10,SW,217,0.0,0.0,95,0.00,,,0.00,weatherlink.com 1.10,2013-09-07 10:07:00,
2013-09-07 06:22:00,46.1,45.0,30.10,SW,217,0.0,1.0,95,0.00,,,0.00,weatherlink.com 1.10,2013-09-07 10:22:00,
2013-09-07 06:37:00,46.6,46.0,30.10,SW,217,0.0,1.0,96,0.00,,,0.00,weatherlink.com 1.10,2013-09-07 10:37:00,
2013-09-07 06:52:00,46.7,46.0,30.10,SW,217,0.0,0.0,96,0.00,,,0.00,weatherlink.com 1.10,2013-09-07 10:52:00,
2013-09-07 07:07:00,47.7,47.0,30.09,SW,217,0.0,1.0,97,0.00,,,0.00,weatherlink.com 1.10,2013-09-07 11:07:00,
2013-09-07 07:22:00,49.0,48.0,30.09,SW,217,0.0,0.0,97,0.00,,,0.00,weatherlink.com 1.10,2013-09-07 11:22:00,
2013-09-07 07:37:00,51.2,50.0,30.09,SW,217,0.0,1.0,97,0.00,,,0.00,weatherlink.com 1.10,2013-09-07 11:37:00,
2013-09-07 07:52:00,53.2,52.0,30.09,SW,217,0.0,0.0,94,0.00,,,0.00,weatherlink.com 1.10,2013-09-07 11:52:00,
2013-09-07 08:07:00,54.5,51.0,30.09,SW,217,0.0,1.0,89,0.00,,,0.00,weatherlink.com 1.10,2013-09-07 12:07:00,
2013-09-07 08:22:00,55.0,51.0,30.09,SW,221,0.0,3.0,87,0.00,,,0.00,weatherlink.com 1.10,2013-09-07 12:22:00,
2013-09-07 08:37:00,56.8,53.0,30.09,SW,229,0.0,3.0,87,0.00,,,0.00,weatherlink.com 1.10,2013-09-07 12:37:00,
2013-09-07 08:52:00,59.0,53.0,30.08,SW,229,0.0,1.0,80,0.00,,,0.00,weatherlink.com 1.10,2013-09-07 12:52:00,
2013-09-07 09:07:00,59.7,53.0,30.08,WSW,239,2.0,2.0,78,0.00,,,0.00,weatherlink.com 1.10,2013-09-07 13:07:00,
2013-09-07 09:22:00,61.3,54.0,30.09,NNW,332,1.0,3.0,76,0.00,,,0.00,weatherlink.com 1.10,2013-09-07 13:22:00,
2013-09-07 09:37:00,63.4,53.0,30.09,WNW,291,1.0,4.0,68,0.00,,,0.00,weatherlink.com 1.10,2013-09-07 13:37:00,
2013-09-07 09:52:00,65.5,55.0,30.08,North,349,1.0,6.0,68,0.00,,,0.00,weatherlink.com 1.10,2013-09-07 13:52:00,
2013-09-07 10:07:00,66.5,54.0,30.08,North,353,0.0,5.0,65,0.00,,,0.00,weatherlink.com 1.10,2013-09-07 14:07:00,
2013-09-07 10:23:00,68.0,52.0,30.08,NNW,337,1.0,7.0,58,0.00,,,0.00,weatherlink.com 1.10,2013-09-07 14:23:00,
2013-09-07 10:38:00,70.1,55.0,30.09,NNW,345,3.0,9.0,60,0.00,,,0.00,weatherlink.com 1.10,2013-09-07 14:38:00,
2013-09-07 10:53:00,71.3,54.0,30.09,NNW,328,3.0,8.0,54,0.00,,,0.00,weatherlink.com 1.10,2013-09-07 14:53:00,
2013-09-07 11:08:00,71.7,54.0,30.08,SSW,201,1.0,5.0,53,0.00,,,0.00,weatherlink.com 1.10,2013-09-07 15:08:00,
2013-09-07 11:23:00,71.9,55.0,30.08,North,3,0.0,7.0,55,0.00,,,0.00,weatherlink.com 1.10,2013-09-07 15:23:00,
2013-09-07 11:38:00,72.6,57.0,30.07,NNW,343,2.0,8.0,58,0.00,,,0.00,weatherlink.com 1.10,2013-09-07 15:38:00,
2013-09-07 11:53:00,74.3,55.0,30.06,NNE,12,1.0,6.0,51,0.00,,,0.00,weatherlink.com 1.10,2013-09-07 15:53:00,
2013-09-07 12:08:00,73.5,54.0,30.05,SW,223,2.0,6.0,51,0.00,,,0.00,weatherlink.com 1.10,2013-09-07 16:08:00,
2013-09-07 12:23:00,73.7,53.0,30.04,SSW,207,4.0,6.0,49,0.00,,,0.00,weatherlink.com 1.10,2013-09-07 16:23:00,
2013-09-07 12:38:00,75.3,53.0,30.02,SW,220,5.0,5.0,46,0.00,,,0.00,weatherlink.com 1.10,2013-09-07 16:38:00,
2013-09-07 12:53:00,75.5,54.0,30.01,NNW,338,1.0,7.0,47,0.00,,,0.00,weatherlink.com 1.10,2013-09-07 16:53:00,
2013-09-07 13:08:00,76.4,52.0,30.01,WSW,244,0.0,6.0,43,0.00,,,0.00,weatherlink.com 1.10,2013-09-07 17:08:00,
2013-09-07 13:23:00,77.1,52.0,30.00,North,351,1.0,7.0,41,0.00,,,0.00,weatherlink.com 1.10,2013-09-07 17:23:00,
2013-09-07 13:38:00,78.0,50.0,29.99,NW,326,3.0,5.0,37,0.00,,,0.00,weatherlink.com 1.10,2013-09-07 17:38:00,
2013-09-07 13:53:00,78.0,50.0,29.99,NNE,12,2.0,5.0,38,0.00,,,0.00,weatherlink.com 1.10,2013-09-07 17:53:00,
2013-09-07 14:08:00,78.2,51.0,29.98,SW,224,1.0,8.0,39,0.00,,,0.00,weatherlink.com 1.10,2013-09-07 18:08:00,
2013-09-07 14:23:00,77.8,51.0,29.97,WSW,239,0.0,5.0,39,0.00,,,0.00,weatherlink.com 1.10,2013-09-07 18:23:00,
2013-09-07 14:38:00,78.9,55.0,29.96,North,351,5.0,7.0,44,0.00,,,0.00,weatherlink.com 1.10,2013-09-07 18:38:00,
2013-09-07 14:53:00,81.4,51.0,29.96,NNE,25,6.0,9.0,35,0.00,,,0.00,weatherlink.com 1.10,2013-09-07 18:53:00,
2013-09-07 15:08:00,79.7,50.0,29.95,NNW,335,1.0,5.0,36,0.00,,,0.00,weatherlink.com 1.10,2013-09-07 19:08:00,
2013-09-07 15:23:00,80.9,54.0,29.95,North,9,8.0,8.0,39,0.00,,,0.00,weatherlink.com 1.10,2013-09-07 19:23:00,
2013-09-07 15:39:00,82.2,53.0,29.95,North,10,5.0,8.0,37,0.00,,,0.00,weatherlink.com 1.10,2013-09-07 19:39:00,
2013-09-07 15:54:00,81.5,55.0,29.94,North,5,1.0,8.0,40,0.00,,,0.00,weatherlink.com 1.10,2013-09-07 19:54:00,
2013-09-07 16:09:00,78.9,48.0,29.94,NW,324,3.0,5.0,34,0.00,,,0.00,weatherlink.com 1.10,2013-09-07 20:09:00,
2013-09-07 16:24:00,79.8,52.0,29.93,North,5,6.0,8.0,38,0.00,,,0.00,weatherlink.com 1.10,2013-09-07 20:24:00,
2013-09-07 16:39:00,79.4,51.0,29.93,North,6,2.0,4.0,37,0.00,,,0.00,weatherlink.com 1.10,2013-09-07 20:39:00,
2013-09-07 16:54:00,78.1,50.0,29.93,NE,37,1.0,5.0,38,0.00,,,0.00,weatherlink.com 1.10,2013-09-07 20:54:00,
2013-09-07 17:09:00,77.7,50.0,29.93,North,356,0.0,5.0,38,0.00,,,0.00,weatherlink.com 1.10,2013-09-07 21:09:00,
2013-09-07 17:24:00,78.0,53.0,29.92,West,278,0.0,1.0,42,0.00,,,0.00,weatherlink.com 1.10,2013-09-07 21:24:00,
2013-09-07 17:39:00,77.7,53.0,29.92,WNW,290,1.0,2.0,42,0.00,,,0.00,weatherlink.com 1.10,2013-09-07 21:39:00,
2013-09-07 17:54:00,76.5,51.0,29.92,WNW,302,0.0,2.0,41,0.00,,,0.00,weatherlink.com 1.10,2013-09-07 21:54:00,
2013-09-07 18:09:00,75.9,52.0,29.92,WNW,299,1.0,1.0,44,0.00,,,0.00,weatherlink.com 1.10,2013-09-07 22:09:00,
2013-09-07 18:24:00,75.3,52.0,29.92,West,269,0.0,3.0,44,0.00,,,0.00,weatherlink.com 1.10,2013-09-07 22:24:00,
2013-09-07 18:39:00,74.8,54.0,29.91,West,268,0.0,2.0,49,0.00,,,0.00,weatherlink.com 1.10,2013-09-07 22:39:00,
2013-09-07 18:54:00,74.0,55.0,29.91,WSW,239,0.0,3.0,52,0.00,,,0.00,weatherlink.com 1.10,2013-09-07 22:54:00,
2013-09-07 19:09:00,73.1,55.0,29.91,WSW,247,1.0,3.0,54,0.00,,,0.00,weatherlink.com 1.10,2013-09-07 23:09:00,
2013-09-07 19:24:00,72.2,55.0,29.91,WSW,247,0.0,0.0,55,0.00,,,0.00,weatherlink.com 1.10,2013-09-07 23:24:00,
2013-09-07 19:39:00,71.5,55.0,29.91,WSW,247,0.0,1.0,56,0.00,,,0.00,weatherlink.com 1.10,2013-09-07 23:39:00,
2013-09-07 19:54:00,71.0,55.0,29.91,WSW,244,0.0,1.0,58,0.00,,,0.00,weatherlink.com 1.10,2013-09-07 23:54:00,
2013-09-07 20:09:00,70.4,55.0,29.91,WSW,244,1.0,2.0,58,0.00,,,0.00,weatherlink.com 1.10,2013-09-08 00:09:00,
2013-09-07 20:24:00,70.0,55.0,29.91,WSW,244,0.0,3.0,59,0.00,,,0.00,weatherlink.com 1.10,2013-09-08 00:24:00,
2013-09-07 20:39:00,69.5,55.0,29.91,WSW,244,0.0,3.0,60,0.00,,,0.00,weatherlink.com 1.10,2013-09-08 00:39:00,
2013-09-07 20:54:00,69.3,55.0,29.91,WSW,239,0.0,3.0,60,0.00,,,0.00,weatherlink.com 1.10,2013-09-08 00:54:00,
2013-09-07 21:09:00,69.3,54.0,29.91,WSW,239,0.0,2.0,59,0.00,,,0.00,weatherlink.com 1.10,2013-09-08 01:09:00,
2013-09-07 21:24:00,69.1,55.0,29.91,WSW,239,0.0,2.0,61,0.00,,,0.00,weatherlink.com 1.10,2013-09-08 01:24:00,
2013-09-07 21:39:00,68.5,56.0,29.91,WSW,239,0.0,1.0,64,0.00,,,0.00,weatherlink.com 1.10,2013-09-08 01:39:00,
2013-09-07 21:54:00,67.9,56.0,29.91,WSW,239,0.0,0.0,65,0.00,,,0.00,weatherlink.com 1.10,2013-09-08 01:54:00,
2013-09-07 22:09:00,67.5,56.0,29.91,WSW,239,0.0,0.0,66,0.00,,,0.00,weatherlink.com 1.10,2013-09-08 02:09:00,
2013-09-07 22:24:00,67.3,56.0,29.91,WSW,239,0.0,0.0,67,0.00,,,0.00,weatherlink.com 1.10,2013-09-08 02:24:00,
2013-09-07 22:39:00,67.1,56.0,29.90,WSW,239,0.0,0.0,67,0.00,,,0.00,weatherlink.com 1.10,2013-09-08 02:39:00,
2013-09-07 22:54:00,67.0,56.0,29.90,WSW,239,0.0,0.0,69,0.00,,,0.00,weatherlink.com 1.10,2013-09-08 02:54:00,
2013-09-07 23:09:00,66.8,56.0,29.90,WSW,239,0.0,0.0,69,0.00,,,0.00,weatherlink.com 1.10,2013-09-08 03:09:00,
2013-09-07 23:24:00,66.6,57.0,29.90,WSW,239,0.0,0.0,70,0.00,,,0.00,weatherlink.com 1.10,2013-09-08 03:24:00,
2013-09-07 23:39:00,66.6,57.0,29.90,WSW,239,0.0,1.0,72,0.00,,,0.00,weatherlink.com 1.10,2013-09-08 03:39:00,
2013-09-07 23:54:00,66.3,60.0,29.89,WSW,239,0.0,0.0,80,0.00,,,0.00,weatherlink.com 1.10,2013-09-08 03:54:00,